Location: Bruderhein
(53.8035°N, 112.9265°W)
Time: 06:52:08
(UTC+00:00)

deb Delta 139 - Visible Passes

Search period start: 03 December 2023 00:00
Search period end: 13 December 2023 00:00
Orbit: 731 x 796 km, 98.6° (Epoch: 02 December)

Date Brightness Start Highest point End Pass type
(mag) Time Alt. Az. Time Alt. Az. Time Alt. Az.
03 Dec ? 01:31:39 10° S 01:36:49 73° WSW 01:41:55 10° NNW visible
03 Dec ? 03:14:14 10° WSW 03:16:39 13° W 03:19:04 10° NW visible
03 Dec ? 13:34:24 10° NE 13:38:16 22° E 13:42:05 10° SE visible
04 Dec ? 00:54:33 10° SSE 00:59:38 61° ENE 01:04:39 10° N visible
04 Dec ? 02:34:43 10° SSW 02:38:57 25° W 02:43:09 10° NW visible
04 Dec ? 12:59:00 10° ENE 13:00:30 11° E 13:01:59 10° E visible
04 Dec ? 14:35:30 10° NNE 14:40:28 66° ESE 14:45:20 10° S visible
05 Dec ? 00:18:01 10° SE 00:22:37 34° ENE 00:27:09 10° N visible
05 Dec ? 01:56:29 10° S 02:01:27 47° W 02:06:22 10° NNW visible
05 Dec ? 13:58:32 10° NNE 14:03:02 34° E 14:07:28 10° SSE visible
06 Dec ? 01:18:58 10° SSE 01:24:08 89° WSW 01:29:14 10° NNW visible
06 Dec ? 03:00:33 10° SW 03:03:47 17° W 03:07:00 10° NW visible
06 Dec ? 13:22:04 10° NE 13:25:24 18° E 13:28:41 10° SE visible
07 Dec ? 00:42:04 10° SE 00:46:59 49° ENE 00:51:51 10° N visible
07 Dec ? 02:21:36 10° SSW 02:26:08 31° W 02:30:38 10° NNW visible
07 Dec ? 14:22:51 10° NNE 14:27:42 52° E 14:32:28 10° S visible
08 Dec ? 00:05:44 10° ESE 00:10:01 28° ENE 00:14:16 10° N visible
08 Dec ? 01:43:37 10° S 01:48:41 59° WSW 01:53:41 10° NNW visible
08 Dec ? 03:27:52 10° W 03:28:41 10° W 03:29:30 10° WNW visible
08 Dec ? 13:45:59 10° NE 13:50:11 27° E 13:54:19 10° SSE visible
09 Dec ? 01:06:19 10° SSE 01:11:24 74° ENE 01:16:27 10° NNW visible
09 Dec ? 02:47:05 10° SW 02:50:53 21° W 02:54:39 10° NW visible
09 Dec ? 13:09:54 10° NE 13:12:27 14° E 13:14:59 10° ESE visible
09 Dec ? 14:47:16 10° NNE 14:52:14 81° ESE 14:57:08 10° SSW visible
10 Dec ? 00:29:35 10° SE 00:34:18 40° ENE 00:39:00 10° N visible
10 Dec ? 02:08:32 10° SSW 02:13:18 39° W 02:18:01 10° NNW visible
10 Dec ? 14:10:10 10° NNE 14:14:51 41° E 14:19:28 10° SSE visible
10 Dec ? 23:53:27 10° ESE 23:57:23 23° NE 00:01:16 10° N visible
11 Dec ? 01:30:47 10° S 01:35:53 74° WSW 01:40:56 10° NNW visible
11 Dec ? 03:13:17 10° WSW 03:15:42 13° W 03:18:06 10° NW visible
11 Dec ? 13:33:29 10° NE 13:37:15 22° E 13:40:59 10° SE visible
12 Dec ? 00:53:40 10° SSE 00:58:40 59° ENE 01:03:36 10° N visible
12 Dec ? 02:33:46 10° SSW 02:37:58 25° W 02:42:07 10° NW visible
12 Dec ? 12:58:16 10° ENE 12:59:26 11° E 13:00:36 10° E visible
12 Dec ? 14:34:29 10° NNE 14:39:24 64° ESE 14:44:16 10° S visible
